, FL

(GMT )
Bonifay

Weather History for K1J0 - August, 2019

Change the Weather History Date:

Saturday, August 10, 2019

  Actual Average (WUND) Record (WUND)
Temperature  
Mean Temperature 85 °F -  
Max Temperature 95 °F - - (-1)
Min Temperature 75 °F - - (-1)
Cooling Degree Days 20    
Growing Degree Days 35 (Base 50)    
Moisture  
Dew Point 75 °F    
Average Humidity 80    
Maximum Humidity 96    
Minimum Humidity 49    
Precipitation  
Precipitation 0.00 in - - ()
Sea Level Pressure  
Sea Level Pressure 29.83 in    
Wind  
Wind Speed 2 mph (SW)    
Max Wind Speed 9 mph    
Max Gust Speed -    
Visibility 9 miles    
Events      
Averages and records for this station are not official NWS values.
T = Trace of Precipitation, MM = Missing Value Source: NWS Daily Summary

Daily Weather History Graph

Daily Weather History Graph

Search for Another Location

Airport or City:

Astronomy

Aug. 10, 2019 Rise Set
Actual Time 7:05 AM EDT 8:29 PM EDT
Civil Twilight 6:39 AM EDT 8:55 PM EDT
Nautical Twilight 6:08 AM EDT 9:25 PM EDT
Astronomical Twilight 5:36 AM EDT 9:57 PM EDT
Moon 5:03 PM EDT (8/10) 2:47 AM EDT (8/10)
Length of Visible Light 14h 15m
Length of Day
13h 24m
Waxing Gibbous, 79% of the Moon is Illuminated
Aug 10
Waxing Gibbous
Aug 15
Full
Aug 23
Last Quarter
Aug 30
New
Sep 5
First Quarter

Hourly Weather History & Observations

Time (EDT) Temp. Heat Index Dew Point Humidity Pressure Visibility Wind Dir Wind Speed Gust Speed Precip Events Conditions
12:58 AM 78.1 °F - 75.9 °F 93% 29.83 in 9.0 mi South 3.5 mph - N/A   Clear
1:58 AM 77.0 °F - 75.9 °F 96% 29.82 in 7.0 mi SSW 3.5 mph - N/A   Clear
2:58 AM 77.0 °F - 75.0 °F 94% 29.81 in 6.0 mi Calm Calm - N/A   Clear
3:58 AM 77.0 °F - 75.0 °F 94% 29.81 in 6.0 mi Calm Calm - N/A   Clear
4:58 AM 77.0 °F - 75.0 °F 94% 29.81 in 6.0 mi Calm Calm - N/A   Clear
5:58 AM 77.0 °F - 75.0 °F 94% 29.82 in 10.0 mi Calm Calm - N/A   Clear
6:58 AM 75.9 °F - 73.9 °F 94% 29.84 in 9.0 mi Calm Calm - N/A   Clear
7:58 AM 77.0 °F - 75.0 °F 94% 29.85 in 8.0 mi SW 3.5 mph - N/A   Clear
8:58 AM 80.1 °F 85.1 °F 75.0 °F 85% 29.87 in 10.0 mi Calm Calm - N/A   Clear
9:58 AM 84.0 °F 91.9 °F 75.0 °F 74% 29.88 in 10.0 mi NW 4.6 mph - N/A   Clear
10:58 AM 89.1 °F 99.1 °F 75.0 °F 63% 29.88 in 10.0 mi NW 4.6 mph - N/A   Clear
11:58 AM 90.0 °F 99.0 °F 73.9 °F 59% 29.87 in 10.0 mi West 4.6 mph - N/A   Clear
2:58 PM 93.0 °F 101.9 °F 73.0 °F 52% 29.80 in 10.0 mi Calm Calm - N/A   Partly Cloudy
3:58 PM 95.0 °F 104.5 °F 73.0 °F 49% 29.77 in 10.0 mi Calm Calm - N/A   Scattered Clouds
4:58 PM 95.0 °F 104.5 °F 73.0 °F 49% 29.77 in 10.0 mi Calm Calm - N/A   Scattered Clouds
5:58 PM 84.0 °F 92.6 °F 75.9 °F 76% 29.80 in 10.0 mi WSW 9.2 mph - N/A   Mostly Cloudy
6:58 PM 82.9 °F 90.8 °F 75.9 °F 79% 29.80 in 10.0 mi SSW 6.9 mph - 0.00 in   Mostly Cloudy
7:58 PM 82.0 °F 89.4 °F 75.9 °F 82% 29.82 in 10.0 mi Calm Calm - N/A   Clear
8:58 PM 81.0 °F 87.3 °F 75.9 °F 85% 29.83 in 10.0 mi South 3.5 mph - N/A   Clear
10:58 PM 79.0 °F - 75.0 °F 88% 29.83 in 10.0 mi WSW 3.5 mph - N/A   Clear